Chino, CA

12:03 AM PDT on October 17, 2017 (GMT -0700)
Chino

Weather History for KCNO - March, 2012

Change the Weather History Date:

Wednesday, March 7, 2012

  Actual Average Record
Temperature  
Mean Temperature 48 °F -  
Max Temperature 62 °F 66 °F 86 °F (2004)
Min Temperature 35 °F 41 °F 35 °F (2012)
Degree Days  
Heating Degree Days 16    
Moisture  
Dew Point 22 °F    
Average Humidity 43    
Maximum Humidity 79    
Minimum Humidity 13    
Precipitation  
Precipitation 0.00 in - - ()
Sea Level Pressure  
Sea Level Pressure 30.03 in    
Wind  
Wind Speed 4 mph (West)    
Max Wind Speed 9 mph    
Max Gust Speed -    
Visibility 10 miles    
Events      
Averages and records for this station are not official NWS values.
T = Trace of Precipitation, MM = Missing Value Source: NWS Daily Summary

Daily Weather History Graph

Daily Weather History Graph

Search for Another Location

Airport or City:

Trip Planner

Search our weather history database for the weather conditions in past years. The results will help you decide how hot, cold, wet, or windy it might be!

Date:

Astronomy

Mar. 07, 2012 Rise Set
Actual Time 6:10 AM PST 5:52 PM PST
Civil Twilight 5:45 AM PST 6:17 PM PST
Nautical Twilight 5:16 AM PST 6:46 PM PST
Astronomical Twilight 4:47 AM PST 7:15 PM PST
Moon 5:32 PM PST (3/7) 5:23 AM PST (3/7)
Length of Visible Light 12h 31m
Length of Day
11h 41m
Full, 100% of the Moon is Illuminated
Mar 7
Full
Mar 8
Full
Mar 14
Last Quarter
Mar 22
New
Mar 30
First Quarter

Hourly Weather History & Observations

Time (PST) Temp. Windchill Dew Point Humidity Pressure Visibility Wind Dir Wind Speed Gust Speed Precip Events Conditions
12:53 AM 41.0 °F 37.1 °F 34.0 °F 76% 29.87 in 8.0 mi SW 5.8 mph - N/A   Clear
1:53 AM 39.9 °F - 32.0 °F 73% 29.88 in 9.0 mi Calm Calm - N/A   Clear
2:53 AM 37.9 °F - 32.0 °F 79% 29.88 in 9.0 mi Calm Calm - N/A   Clear
3:53 AM 37.9 °F - 32.0 °F 79% 29.90 in 8.0 mi Calm Calm - N/A   Clear
4:53 AM 36.0 °F 33.3 °F 30.0 °F 79% 29.93 in 9.0 mi SSE 3.5 mph - N/A   Clear
5:53 AM 35.1 °F 30.1 °F 28.0 °F 76% 29.94 in 9.0 mi West 5.8 mph - N/A   Clear
6:53 AM 42.1 °F - 19.9 °F 41% 29.96 in 10.0 mi Calm Calm - N/A   Partly Cloudy
7:53 AM 48.0 °F - 19.0 °F 32% 29.99 in 10.0 mi NW 3.5 mph - N/A   Clear
8:53 AM 51.1 °F - 18.0 °F 27% 30.01 in 10.0 mi WNW 5.8 mph - N/A   Clear
9:53 AM 53.1 °F - 12.9 °F 20% 30.04 in 10.0 mi Variable 3.5 mph - N/A   Clear
10:53 AM 57.0 °F - 12.0 °F 17% 30.05 in 10.0 mi SSW 5.8 mph - N/A   Clear
11:53 AM 57.9 °F - 10.0 °F 15% 30.05 in 10.0 mi Variable 3.5 mph - N/A   Clear
12:53 PM 59.0 °F - 8.1 °F 13% 30.05 in 10.0 mi Calm Calm - N/A   Clear
1:53 PM 61.0 °F - 10.9 °F 14% 30.04 in 10.0 mi Variable 4.6 mph - N/A   Clear
2:53 PM 62.1 °F - 12.0 °F 14% 30.04 in 10.0 mi Variable 4.6 mph - N/A   Clear
3:53 PM 62.1 °F - 10.0 °F 13% 30.04 in 10.0 mi Calm Calm - N/A   Clear
4:53 PM 61.0 °F - 19.0 °F 20% 30.05 in 10.0 mi WNW 5.8 mph - N/A   Clear
5:53 PM 55.0 °F - 21.0 °F 27% 30.08 in 9.0 mi West 9.2 mph - N/A   Clear
6:53 PM 51.1 °F - 26.1 °F 38% 30.12 in 10.0 mi WSW 3.5 mph - N/A   Clear
7:53 PM 48.9 °F - 26.1 °F 41% 30.11 in 10.0 mi West 5.8 mph - N/A   Clear
8:53 PM 48.0 °F - 28.0 °F 46% 30.14 in 10.0 mi Variable 6.9 mph - N/A   Clear
9:53 PM 43.0 °F 41.3 °F 32.0 °F 65% 30.15 in 9.0 mi Variable 3.5 mph - N/A   Clear
10:53 PM 44.1 °F 40.8 °F 30.9 °F 60% 30.15 in 10.0 mi Variable 5.8 mph - N/A   Clear
11:53 PM 41.0 °F 39.0 °F 30.0 °F 65% 30.16 in 10.0 mi NW 3.5 mph - N/A   Clear